Location: ????????
(56.1167°N, 38.6333°E)
Time: 07:54:48
(UTC+00:00)

Cosmos 2297 Rocket - Pass Details

Date: 18 November 2025
Orbit: 837 x 844 km, 71.0° (Epoch: 14 December)

Event Time Altitude Azimuth Distance (km) Brightness Sun altitude
Rises 14:59:58 0° 305° (NW) 3,408 6.0 -14.5°
Reaches altitude 10° 15:03:13 10° 324° (NW) 2,473 4.9 -15.0°
Maximum altitude 15:07:07 19° 7° (N) 1,940 3.9 -15.5°
Enters shadow 15:09:28 15° 37° (NE) 2,151 3.9 -15.8°
